Location: Bremen
(53.0830°N, 8.8000°E)
Time: 18:17:56
(UTC+01:00)

Envisat - Pass Details

Date: 07 October 2022
Orbit: 763 x 765 km, 98.2° (Epoch: 30 November)

Event Time Altitude Azimuth Distance (km) Brightness Sun altitude
Rises 05:06:48 0° 20° (NNE) 3,247 6.9 -22.9°
Reaches altitude 10° 05:09:19 10° 30° (NNE) 2,316 6.2 -22.5°
Maximum altitude 05:13:57 34° 95° (E) 1,250 4.6 -21.9°
Drops below altitude 10° 05:18:32 10° 160° (SSE) 2,299 5.5 -21.2°
Sets 05:21:02 0° 169° (S) 3,220 6.1 -20.9°
